Location: Ripley
(48.3812°N, 115.4473°W)
Time: 09:32:38
(UTC+00:00)

DMSP B5D1-1 - Visible Passes

Search period start: 26 November 2022 00:00
Search period end: 06 December 2022 00:00
Orbit: 790 x 816 km, 98.3° (Epoch: 25 November)

Date Brightness Start Highest point End Pass type
(mag) Time Alt. Az. Time Alt. Az. Time Alt. Az.
26 Nov 7.3 02:13:08 11° SSE 02:13:08 11° SSE 02:13:20 10° SSE visible
26 Nov 7.9 11:51:45 10° ENE 11:53:45 12° NE 11:55:45 10° NNE visible
26 Nov 5.5 13:27:22 10° SSE 13:32:35 66° ENE 13:37:47 10° N visible
27 Nov 7.6 03:28:06 11° SSW 03:28:06 11° SSW 03:28:12 10° SSW visible
27 Nov 6.3 13:02:05 10° SE 13:07:00 41° ENE 13:11:54 10° N visible
28 Nov 7.4 03:02:04 13° S 03:02:04 13° S 03:02:36 10° S visible
28 Nov 7.0 12:37:10 10° ESE 12:41:31 27° ENE 12:45:50 10° N visible
28 Nov 5.3 14:15:55 10° S 14:21:02 51° W 14:26:09 10° NNW visible
29 Nov 7.2 02:36:02 13° S 02:36:02 13° S 02:36:38 10° S visible
29 Nov 7.6 12:12:41 10° E 12:16:07 18° ENE 12:19:31 10° NNE visible
29 Nov 5.0 13:50:00 10° SSE 13:55:16 82° WSW 14:00:33 10° NNW visible
30 Nov 7.2 02:10:00 11° SSE 02:10:00 11° SSE 02:10:17 10° SSE visible
30 Nov 7.9 11:49:03 10° ENE 11:50:48 12° NE 11:52:34 10° NNE visible
30 Nov 5.5 13:24:25 10° SSE 13:29:37 63° ENE 13:34:47 10° N visible
01 Dec 7.6 03:24:57 12° SSW 03:24:57 12° SSW 03:25:15 10° SSW visible
01 Dec 6.4 12:59:11 10° SE 13:04:01 39° ENE 13:08:53 10° N visible
02 Dec 7.3 02:58:54 14° S 02:58:54 14° S 02:59:36 10° S visible
02 Dec 7.1 12:34:17 10° ESE 12:38:33 26° ENE 12:42:48 10° N visible
02 Dec 5.3 14:12:54 10° S 14:18:02 53° W 14:23:10 10° NNW visible
03 Dec 7.1 02:32:51 14° SSE 02:32:51 14° SSE 02:33:37 10° S visible
03 Dec 7.6 12:09:52 10° E 12:13:09 17° ENE 12:16:27 10° NNE visible
03 Dec 5.0 13:47:01 10° SSE 13:52:17 86° WSW 13:57:33 10° NNW visible
04 Dec 7.2 02:06:48 12° SSE 02:06:48 12° SSE 02:07:13 10° SSE visible
04 Dec 7.9 11:46:24 10° ENE 11:47:52 11° NE 11:49:19 10° NE visible
04 Dec 5.6 13:21:28 10° SSE 13:26:38 60° ENE 13:31:46 10° N visible
05 Dec 7.5 03:21:44 13° SSW 03:21:44 13° SSW 03:22:17 10° SSW visible
05 Dec 6.4 12:56:16 10° SE 13:01:03 38° ENE 13:05:51 10° N visible
05 Dec 5.8 14:36:08 10° SSW 14:40:53 34° W 14:45:38 10° NNW visible
